When you browse on this site, cookies collect data to enhance your experience and personalize the content and advertising you see.
Visit our Privacy Policy to learn more. By continuing to use the site, you agree to this use of cookies and data.
  • En España
  • Lista de países
  • Para 7 días
  • Temperatura del agua
  • El tiempo en el mapa
  • Informadores
  • user-avatar
    Iniciar sesión

    Tiempo cada hora Bujumbura

    Hoy, 18 Febrero, Martes

    Tiempo Temperatura Precipitaciones Viento Presión Humedad
    00:00 +24°C° 0 mm 1 mps 692 mmHg 85%
    01:00 +23°C° 0 mm 1 mps 692 mmHg 85%
    02:00 +23°C° 0 mm 1 mps 692 mmHg 84%
    03:00 +23°C° 0.1 mm 1 mps 692 mmHg 85%
    04:00 +23°C° 0.1 mm 1 mps 692 mmHg 86%
    05:00 +23°C° 0.1 mm 1 mps 692 mmHg 86%
    06:00 +24°C° 0 mm 1 mps 692 mmHg 84%
    07:00 +26°C° 0 mm 1 mps 693 mmHg 81%
    08:00 +27°C° 0 mm 1 mps 694 mmHg 79%
    09:00 +28°C° 0.3 mm 1 mps 693 mmHg 74%
    10:00 +30°C° 0.3 mm 1 mps 693 mmHg 70%
    11:00 +31°C° 0.3 mm 1 mps 693 mmHg 65%
    12:00 +31°C° 0.7 mm 1 mps 692 mmHg 66%
    13:00 +31°C° 0.7 mm 2 mps 691 mmHg 67%
    14:00 +31°C° 0.7 mm 2 mps 691 mmHg 69%
    15:00 +30°C° 0.9 mm 2 mps 691 mmHg 72%
    16:00 +30°C° 0.9 mm 2 mps 690 mmHg 76%
    17:00 +29°C° 0.9 mm 1 mps 690 mmHg 80%
    18:00 +28°C° 0.5 mm 1 mps 690 mmHg 82%
    19:00 +27°C° 0.5 mm 1 mps 691 mmHg 84%
    20:00 +25°C° 0.5 mm 1 mps 692 mmHg 87%
    21:00 +25°C° 0.1 mm 1 mps 692 mmHg 86%
    22:00 +25°C° 0.1 mm 1 mps 692 mmHg 86%
    23:00 +24°C° 0.1 mm 1 mps 692 mmHg 85%

    Mañana, 19 Febrero, Miércoles

    Tiempo Temperatura Precipitaciones Viento Presión Humedad
    00:00 +24°C° 0.1 mm 1 mps 692 mmHg 85%
    01:00 +24°C° 0.1 mm 1 mps 692 mmHg 85%
    02:00 +24°C° 0.1 mm 1 mps 692 mmHg 85%
    03:00 +24°C° 0 mm 1 mps 692 mmHg 85%
    04:00 +23°C° 0 mm 1 mps 692 mmHg 85%
    05:00 +23°C° 0 mm 1 mps 692 mmHg 86%
    06:00 +24°C° 0 mm 1 mps 692 mmHg 83%
    07:00 +26°C° 0 mm 1 mps 693 mmHg 81%
    08:00 +27°C° 0 mm 1 mps 693 mmHg 79%
    09:00 +28°C° 0.5 mm 1 mps 693 mmHg 76%
    10:00 +29°C° 0.5 mm 1 mps 693 mmHg 72%
    11:00 +30°C° 0.5 mm 1 mps 693 mmHg 69%
    12:00 +31°C° 0.6 mm 1 mps 692 mmHg 69%
    13:00 +31°C° 0.6 mm 2 mps 692 mmHg 69%
    14:00 +31°C° 0.6 mm 2 mps 691 mmHg 69%
    15:00 +30°C° 0.7 mm 2 mps 691 mmHg 73%
    16:00 +30°C° 0.7 mm 2 mps 691 mmHg 76%
    17:00 +29°C° 0.7 mm 2 mps 690 mmHg 79%
    18:00 +28°C° 0.2 mm 2 mps 691 mmHg 82%
    19:00 +26°C° 0.2 mm 2 mps 691 mmHg 84%
    20:00 +25°C° 0.2 mm 1 mps 691 mmHg 87%
    21:00 +25°C° 0 mm 1 mps 692 mmHg 87%
    22:00 +24°C° 0 mm 1 mps 692 mmHg 86%
    23:00 +24°C° 0 mm 1 mps 692 mmHg 86%

    Pasado mañana, 20 Febrero, Jueves

    Tiempo Temperatura Precipitaciones Viento Presión Humedad
    00:00 +24°C° 0 mm 1 mps 692 mmHg 86%
    01:00 +24°C° 0 mm 1 mps 692 mmHg 86%
    02:00 +23°C° 0 mm 1 mps 691 mmHg 87%
    03:00 +23°C° 0.1 mm 1 mps 691 mmHg 87%
    04:00 +23°C° 0.1 mm 1 mps 691 mmHg 88%
    05:00 +23°C° 0.1 mm 1 mps 691 mmHg 88%
    06:00 +24°C° 0 mm 1 mps 692 mmHg 85%
    07:00 +25°C° 0 mm 1 mps 692 mmHg 83%
    08:00 +27°C° 0 mm 1 mps 693 mmHg 80%
    09:00 +29°C° 0.1 mm 1 mps 693 mmHg 73%
    10:00 +30°C° 0.1 mm 1 mps 693 mmHg 65%
    11:00 +32°C° 0.1 mm 1 mps 692 mmHg 57%
    12:00 +32°C° 0.5 mm 1 mps 692 mmHg 61%
    13:00 +31°C° 0.5 mm 2 mps 691 mmHg 64%
    14:00 +31°C° 0.5 mm 2 mps 690 mmHg 68%
    15:00 +31°C° 0.4 mm 2 mps 690 mmHg 71%
    16:00 +30°C° 0.4 mm 2 mps 690 mmHg 74%
    17:00 +29°C° 0.4 mm 2 mps 689 mmHg 78%
    18:00 +28°C° 0.2 mm 2 mps 690 mmHg 81%
    19:00 +27°C° 0.2 mm 2 mps 690 mmHg 84%
    20:00 +25°C° 0.2 mm 2 mps 691 mmHg 87%
    21:00 +25°C° 0.1 mm 1 mps 691 mmHg 87%
    22:00 +25°C° 0.1 mm 1 mps 691 mmHg 86%
    23:00 +24°C° 0.1 mm 1 mps 692 mmHg 86%

    21 Febrero, Viernes

    Tiempo Temperatura Precipitaciones Viento Presión Humedad
    00:00 +24°C° 0 mm 1 mps 691 mmHg 85%
    01:00 +24°C° 0 mm 1 mps 691 mmHg 85%
    02:00 +24°C° 0 mm 1 mps 691 mmHg 85%
    03:00 +24°C° 0.1 mm 1 mps 691 mmHg 86%
    04:00 +23°C° 0.1 mm 1 mps 691 mmHg 87%
    05:00 +23°C° 0.1 mm 1 mps 691 mmHg 87%
    06:00 +24°C° 0 mm 1 mps 692 mmHg 85%
    07:00 +26°C° 0 mm 1 mps 692 mmHg 83%
    08:00 +27°C° 0 mm 1 mps 693 mmHg 81%
    15:00 +31°C° 0.5 mm 2 mps 690 mmHg 67%
    16:00 +30°C° 0.5 mm 2 mps 690 mmHg 72%
    17:00 +30°C° 0.5 mm 3 mps 690 mmHg 77%
    18:00 +28°C° 0.3 mm 2 mps 690 mmHg 80%
    19:00 +27°C° 0.3 mm 2 mps 691 mmHg 83%
    20:00 +25°C° 0.3 mm 2 mps 691 mmHg 86%
    21:00 +25°C° 0.1 mm 1 mps 691 mmHg 86%
    22:00 +25°C° 0.1 mm 1 mps 692 mmHg 86%
    23:00 +24°C° 0.1 mm 1 mps 692 mmHg 85%

    22 Febrero, Sábado

    Tiempo Temperatura Precipitaciones Viento Presión Humedad
    00:00 +24°C° 0.2 mm 1 mps 692 mmHg 86%
    01:00 +24°C° 0.2 mm 1 mps 691 mmHg 86%
    02:00 +24°C° 0.2 mm 1 mps 691 mmHg 86%
    03:00 +24°C° 0 mm 1 mps 691 mmHg 86%
    04:00 +23°C° 0 mm 1 mps 691 mmHg 85%
    05:00 +23°C° 0 mm 1 mps 691 mmHg 85%
    06:00 +25°C° 0 mm 1 mps 692 mmHg 82%
    07:00 +26°C° 0 mm 1 mps 692 mmHg 79%
    08:00 +27°C° 0 mm 1 mps 693 mmHg 77%
    09:00 +29°C° 0.2 mm 1 mps 693 mmHg 71%
    10:00 +31°C° 0.2 mm 1 mps 693 mmHg 66%
    11:00 +32°C° 0.2 mm 1 mps 693 mmHg 60%
    12:00 +33°C° 0.4 mm 1 mps 692 mmHg 59%
    13:00 +33°C° 0.4 mm 1 mps 691 mmHg 58%
    14:00 +33°C° 0.4 mm 1 mps 691 mmHg 57%
    15:00 +32°C° 0.6 mm 1 mps 690 mmHg 63%
    16:00 +31°C° 0.6 mm 1 mps 690 mmHg 69%
    17:00 +30°C° 0.6 mm 2 mps 690 mmHg 75%
    18:00 +29°C° 0.3 mm 1 mps 690 mmHg 78%
    19:00 +27°C° 0.3 mm 1 mps 691 mmHg 81%
    20:00 +25°C° 0.3 mm 1 mps 691 mmHg 84%
    21:00 +25°C° 0.1 mm 1 mps 691 mmHg 83%
    22:00 +25°C° 0.1 mm 1 mps 692 mmHg 82%
    23:00 +25°C° 0.1 mm 1 mps 692 mmHg 81%

    23 Febrero, Domingo

    Tiempo Temperatura Precipitaciones Viento Presión Humedad
    00:00 +24°C° 0 mm 1 mps 691 mmHg 81%
    01:00 +24°C° 0 mm 1 mps 691 mmHg 81%
    02:00 +24°C° 0 mm 1 mps 691 mmHg 82%
    03:00 +24°C° 0 mm 1 mps 691 mmHg 83%
    04:00 +24°C° 0 mm 1 mps 691 mmHg 83%
    05:00 +23°C° 0 mm 1 mps 691 mmHg 84%
    06:00 +25°C° 0 mm 1 mps 692 mmHg 83%
    07:00 +26°C° 0 mm 1 mps 692 mmHg 81%
    08:00 +27°C° 0 mm 1 mps 693 mmHg 79%
    09:00 +28°C° 0.3 mm 1 mps 693 mmHg 75%
    10:00 +30°C° 0.3 mm 1 mps 693 mmHg 71%
    11:00 +31°C° 0.3 mm 1 mps 692 mmHg 66%
    12:00 +31°C° 0.4 mm 1 mps 692 mmHg 67%
    13:00 +31°C° 0.4 mm 2 mps 691 mmHg 67%
    14:00 +31°C° 0.4 mm 2 mps 690 mmHg 68%
    15:00 +30°C° 0.8 mm 2 mps 690 mmHg 72%
    16:00 +29°C° 0.8 mm 2 mps 690 mmHg 77%
    17:00 +29°C° 0.8 mm 2 mps 690 mmHg 81%
    18:00 +28°C° 0.2 mm 2 mps 690 mmHg 82%
    19:00 +27°C° 0.2 mm 2 mps 690 mmHg 82%
    20:00 +26°C° 0.2 mm 2 mps 691 mmHg 83%
    21:00 +26°C° 0 mm 1 mps 691 mmHg 84%
    22:00 +25°C° 0 mm 1 mps 691 mmHg 85%
    23:00 +25°C° 0 mm 1 mps 692 mmHg 86%
    Mostrar más